Find Starlink 31907

NORAD ID: 59797 Int'l Des: 2024-093 Owner: SPXS Country: US Constellation: starlink operational
LEOCIRCULAR

Current View

Loading 3D Globe...

About Starlink 31907

Starlink 31907 (NORAD 59797) is a starlink constellation satellite (v2 mini) launched May 18, 2024 by SPXS of US. It operates in LEO, CIRCULAR orbit with a mass of 730.00 kg.

Upcoming Passes

Passes for default location (London). Set your location on the main map for personalized predictions.

Altitude History

Loading altitude history...

Two-Line Element Set

1 59797U 24093R 26253.98617791 .00000896 00000-0 42092-4 0 9995
2 59797 43.0010 242.4778 0001234 260.1011 99.9702 15.27577501131036
Epoch: Sep 10, 2026 • Age: 11 hours

Current Status

Altitude 483.9 km
Apogee / Perigee N/A
Velocity 7.62 km/s
Sub-Earth Point -6.72°S, 83.06°E
Launch Date May 18, 2024
Age 2.3 years
Type internet

Technical Details

Classification Payload
Mass 730.00 kg
Dry Mass 700.00 kg
Total Mass 730.00 kg
Length 0.30 m
Diameter 4.10 m
Span 29.00 m
Shape Box + pan
Manufacturer SPXS
Bus Type Starlink V2M
Phase Status In Orbit
Owner/State SPXS/US

Most Searched